TimeCDT,TemperatureF,Dew PointF,Humidity,Sea Level PressureIn,VisibilityMPH,Wind Direction,Wind SpeedMPH,Gust SpeedMPH,PrecipitationIn,Events,Conditions,WindDirDegrees,DateUTC
12:53 AM,61.0,57.0,87,29.88,10.0,SSW,5.8,-,N/A,,Mostly Cloudy,210,2013-10-12 05:53:00
1:02 AM,60.8,57.2,88,29.91,10.0,SW,4.6,-,N/A,,Mostly Cloudy,230,2013-10-12 06:02:00
1:35 AM,60.8,57.2,88,29.90,10.0,WNW,4.6,-,N/A,,Scattered Clouds,300,2013-10-12 06:35:00
1:53 AM,61.0,55.0,81,29.89,10.0,NW,13.8,-,N/A,,Clear,320,2013-10-12 06:53:00
2:53 AM,57.9,48.0,70,29.89,10.0,North,11.5,-,N/A,,Clear,350,2013-10-12 07:53:00
3:53 AM,55.9,46.0,69,29.93,10.0,North,11.5,-,N/A,,Clear,350,2013-10-12 08:53:00
4:53 AM,54.0,44.1,69,29.96,10.0,North,8.1,-,N/A,,Clear,360,2013-10-12 09:53:00
5:53 AM,53.1,43.0,69,30.00,10.0,North,6.9,-,N/A,,Clear,10,2013-10-12 10:53:00
6:53 AM,52.0,43.0,71,30.03,10.0,North,4.6,-,N/A,,Clear,360,2013-10-12 11:53:00
7:53 AM,51.1,43.0,74,30.07,10.0,Calm,Calm,-,N/A,,Clear,0,2013-10-12 12:53:00
8:53 AM,55.0,44.1,67,30.10,10.0,North,8.1,-,N/A,,Clear,360,2013-10-12 13:53:00
9:53 AM,57.9,43.0,58,30.12,10.0,North,12.7,-,N/A,,Clear,360,2013-10-12 14:53:00
10:53 AM,60.1,41.0,49,30.12,10.0,North,11.5,-,N/A,,Clear,360,2013-10-12 15:53:00
11:53 AM,63.0,39.9,43,30.14,10.0,North,12.7,-,N/A,,Clear,10,2013-10-12 16:53:00
12:53 PM,64.9,39.9,40,30.15,10.0,North,12.7,-,N/A,,Clear,10,2013-10-12 17:53:00
1:53 PM,66.9,39.0,36,30.13,10.0,North,11.5,19.6,N/A,,Clear,350,2013-10-12 18:53:00
2:53 PM,69.1,37.9,32,30.14,10.0,NNW,11.5,-,N/A,,Clear,340,2013-10-12 19:53:00
3:53 PM,69.1,37.0,31,30.13,10.0,North,11.5,-,N/A,,Clear,350,2013-10-12 20:53:00
4:53 PM,69.1,35.1,29,30.13,10.0,North,10.4,-,N/A,,Clear,360,2013-10-12 21:53:00
5:53 PM,66.9,37.9,34,30.13,10.0,North,6.9,-,N/A,,Clear,360,2013-10-12 22:53:00
6:53 PM,62.1,39.0,43,30.15,10.0,North,3.5,-,N/A,,Clear,10,2013-10-12 23:53:00
7:53 PM,62.1,37.9,41,30.17,10.0,North,3.5,-,N/A,,Clear,10,2013-10-13 00:53:00
8:53 PM,57.9,39.0,49,30.19,10.0,Calm,Calm,-,N/A,,Clear,0,2013-10-13 01:53:00
9:53 PM,57.9,37.9,47,30.22,10.0,Calm,Calm,-,N/A,,Clear,0,2013-10-13 02:53:00
10:53 PM,50.0,39.9,68,30.25,10.0,Calm,Calm,-,N/A,,Clear,0,2013-10-13 03:53:00
11:53 PM,55.0,37.9,53,30.25,10.0,NE,3.5,-,N/A,,Clear,50,2013-10-13 04:53:00